SCP
0 0 0 0 0 0 0 0 0 0 -0 -0 0 0 0 0 0 -0 -0 -0 -0 -1 -0 -0 -0 -1 -1 -1 -1 -1 -0 -0 -0 -0 -0 -0 -0 -0 -0 -0 -0 -0 -0 -0 -0 -0 -0 -0 -0
0 0 0 0 0 0 -0 0 0 0 0 -0 0 0 0 -0 0 -0 0 0 -0 -1 -1 -0 -1 -1 -1 -1 -1 -1 -0 -0 -0 -0 -0 -0 -0 -0 -0 -0 -0 -0 -0 -0 -0 -0 -0 0 0
0 0 0 0 0 0 0 0 0 0 0 0 0 0 0 0 -0 -0 -0 -0 -0 -0 -0 -1 -1 -1 -1 -1 -1 -0 -0 -0 -0 -0 -0 -0 -0 -0 -0 -0 -0 -0 -0 -0 -0 0 0 0 0
0 0 0 0 0 0 0 0 -0 0 -0 -0 -0 0 0 -0 -0 0 0 -1 -1 -0 -0 -1 -1 -1 -1 -1 -1 -1 -0 -0 -0 -0 -0 -0 -0 -0 -0 -0 -0 -0 -0 -0 0 0 0 0 0
0 0 0 0 0 0 0 -0 -0 -0 -0 0 0 0 0 -0 0 0 0 -1 -0 -0 0 0 -0 -0 -0 -0 -0 -0 -0 -0 -0 -0 -0 -0 -0 -0 -0 -0 -0 0 0 0 0 0 0 0 0
0 0 0 0 0 0 0 0 -0 -0 -0 0 -0 1 1 0 0 0 0 0 0 -0 0 0 -0 -0 -0 -0 -0 -0 -0 -0 -0 -0 -0 -0 -0 -0 -0 -0 0 0 0 0 0 0 0 0 0
0 0 0 0 0 0 0 0 0 -0 0 0 0 0 2 1 0 0 0 1 1 1 1 1 0 0 0 0 -0 -0 -0 -0 -0 -0 -0 -0 -0 0 0 0 0 0 0 0 0 0 0 0 0
0 0 0 0 0 0 0 0 0 0 0 0 0 0 3 1 1 1 1 1 1 1 1 1 1 1 0 0 0 0 0 0 0 0 0 0 0 0 0 0 0 0 0 0 0 0 0 0 -0
0 0 0 0 0 0 0 0 0 0 0 0 0 0 2 3 3 3 2 1 1 1 1 1 0 1 0 0 0 0 0 0 0 0 0 0 0 0 0 0 0 0 0 0 0 0 0 0 0
0 0 0 0 0 0 0 -0 0 0 0 0 0 0 2 3 3 2 3 2 1 1 1 1 1 0 0 0 0 0 0 0 0 0 0 0 0 0 0 0 0 0 0 0 0 0 0 0 0
0 0 0 0 0 0 0 0 -0 0 0 0 0 1 2 3 3 2 2 2 0 1 1 1 1 1 1 1 0 0 0 0 0 0 0 0 0 -0 0 0 0 0 0 0 0 0 0 0 0
0 0 0 0 0 0 0 -0 0 0 0 0 0 0 3 3 2 2 2 2 1 1 1 1 1 1 1 1 1 0 0 0 0 0 0 0 0 -0 -0 0 0 0 0 0 0 0 0 0 0
0 0 0 0 0 0 0 0 -0 0 0 0 0 0 3 1 1 1 1 2 1 1 1 1 1 0 1 0 0 0 0 0 0 0 0 0 -0 -0 0 0 0 0 0 0 0 0 0 0 0
0 0 0 0 0 0 0 0 -0 -0 -0 0 0 0 0 1 0 1 2 2 2 1 1 0 0 0 0 0 0 0 0 0 0 0 0 0 0 -0 -0 0 0 0 0 0 0 0 0 0 0
0 0 0 0 0 0 0 0 -0 -0 -0 0 0 0 0 0 0 0 0 4 3 1 1 0 1 1 1 0 0 0 0 0 0 0 0 0 -0 -0 -0 0 0 0 0 0 0 0 0 0 0
0 0 0 0 0 0 0 -0 -0 -0 0 0 0 0 0 0 0 0 4 4 2 1 1 1 1 1 0 1 0 0 0 0 0 0 0 -0 -0 -0 -0 0 0 0 0 0 0 0 0 0 0
0 0 0 0 0 0 0 0 -0 -0 0 0 0 0 0 0 0 0 2 2 1 1 1 0 0 0 0 1 1 0 0 0 0 0 0 0 -0 0 0 0 0 1 1 1 0 0 0 1 0
0 0 0 0 0 0 0 0 0 -0 0 0 0 0 0 0 0 0 1 1 0 0 0 0 0 0 0 1 1 -0 1 0 1 1 0 0 0 0 0 1 1 1 1 1 1 0 1 0 0
0 0 0 0 0 0 0 0 0 0 0 0 0 0 0 0 0 0 0 0 0 0 0 0 0 0 0 1 1 2 1 3 2 2 1 1 1 1 1 1 1 1 1 1 0 0 0 0 0
0 0 0 0 0 0 0 0 0 0 0 0 0 0 0 0 0 0 0 0 0 0 0 0 0 0 0 0 1 1 1 2 2 2 2 1 1 1 1 1 1 1 1 1 1 0 0 0 0
0 0 0 0 0 0 0 0 0 0 0 0 0 0 0 0 -0 0 0 0 0 0 0 0 0 0 0 0 0 2 1 1 2 1 0 1 1 1 1 1 1 1 1 1 1 0 0 0 0
0 0 0 0 0 0 0 0 0 0 0 0 0 0 0 0 0 0 0 0 0 0 0 0 0 0 0 0 0 0 0 0 0 0 1 0 1 1 1 1 1 1 1 0 0 0 0 0 0
0 0 0 0 0 0 0 0 0 0 0 0 0 0 0 0 0 0 0 1 0 0 0 0 -0 -0 -0 -0 0 0 0 0 0 1 0 1 1 1 1 1 1 0 0 0 0 0 0 0 0
0 0 0 0 0 0 0 0 0 0 0 0 0 0 0 0 0 0 0 2 1 1 1 0 0 0 -0 -0 -0 -0 0 0 0 1 1 0 0 1 1 0 0 0 0 0 0 0 0 0 0
0 0 0 0 0 0 0 0 0 0 0 0 0 0 0 0 0 0 1 2 1 1 0 1 1 1 1 1 0 0 0 0 0 0 1 0 1 0 0 0 0 0 0 0 0 0 0 0 0
0 0 0 0 0 0 0 0 0 -0 0 0 0 0 0 0 0 0 2 2 1 0 0 1 2 1 1 0 0 0 0 0 0 1 0 0 0 0 0 0 0 0 0 0 0 0 0 0 0
0 0 0 0 0 0 0 0 0 0 0 0 0 0 0 0 0 0 2 3 1 2 2 2 1 1 0 0 0 0 0 0 0 0 0 0 0 0 0 0 0 0 0 0 0 0 0 0 0
0 0 0 0 0 0 0 0 0 0 0 0 0 0 0 0 0 0 4 3 4 5 3 2 1 0 0 0 0 0 0 0 0 0 0 0 0 0 0 0 0 0 0 0 0 0 0 0 0
0 0 0 0 0 0 0 0 0 0 0 0 0 0 0 0 3 4 4 4 3 2 1 1 0 0 0 0 0 0 0 0 0 0 0 0 0 0 0 0 0 0 0 0 0 0 0 0 0
0 0 0 0 0 0 0 0 0 0 1 1 0 1 2 2 3 3 4 3 2 1 0 0 0 0 0 0 0 0 0 0 0 0 0 0 0 0 0 0 0 0 0 0 0 0 0 0 0
Wind_Speed_500mb
22 22 15 10 4 7 8 18 10 30 10 10 15 16 32 52 24 11 69 16 58 50 64 59 56 54 53 51 47 43 39 34 29 27 27 29 33 37 39 40 39 36 33 30 27 25 23 20 18
16 15 16 6 8 6 13 15 39 32 22 57 23 33 21 17 26 35 73 58 52 64 69 64 60 57 54 52 47 43 39 33 28 24 24 27 32 34 35 35 34 31 28 26 25 21 21 20 20
10 20 14 9 10 22 21 23 37 3 31 37 17 22 21 13 42 74 62 53 49 73 70 66 63 59 54 51 48 44 40 36 30 26 24 26 30 32 31 30 27 25 24 23 22 20 19 20 22
7 13 9 7 19 23 37 15 7 8 49 49 1 5 14 29 47 65 66 54 64 73 74 64 62 59 54 51 49 47 42 37 32 27 26 28 31 32 28 24 22 23 22 21 20 19 17 19 23
19 6 6 9 21 15 25 38 40 26 27 54 36 7 29 44 43 54 53 55 70 80 75 66 61 58 53 50 49 47 42 37 31 24 23 25 29 29 25 22 20 19 19 17 16 15 17 20 24
14 6 4 30 17 38 31 44 39 28 35 65 21 15 25 42 54 49 53 55 63 74 73 64 61 56 52 48 47 46 43 37 32 26 24 24 27 28 23 19 17 15 14 13 13 13 16 20 24
13 8 12 9 22 40 27 29 27 38 33 57 40 13 11 56 58 54 58 58 58 66 69 65 62 56 51 49 47 45 41 36 31 27 25 25 27 28 23 18 15 14 13 11 10 11 12 16 20
20 8 9 14 24 24 12 41 53 47 45 76 60 15 24 80 70 70 70 65 63 70 71 67 64 60 55 52 47 44 40 35 32 29 29 29 29 28 23 18 14 12 12 11 9 9 10 12 15
28 7 25 25 23 18 18 9 49 45 49 56 50 47 49 79 79 76 71 59 62 74 70 69 68 62 56 52 49 44 40 36 34 33 31 31 30 29 25 19 14 11 9 8 7 6 6 7 10
14 18 31 7 22 15 23 18 24 24 40 41 58 37 65 95 92 86 78 70 65 74 72 72 69 64 60 57 53 48 44 40 36 33 33 32 30 27 23 17 11 6 3 4 6 7 7 9 10
15 32 42 13 36 40 34 41 33 24 34 33 35 47 91 101 98 90 80 70 66 67 69 74 70 65 61 57 54 50 44 38 34 30 28 27 26 25 22 19 13 7 9 9 9 7 9 9 7
14 26 47 14 31 41 42 47 37 20 33 58 58 62 87 91 86 84 75 67 63 63 62 62 68 63 61 56 51 45 41 36 32 29 27 26 25 23 20 14 13 11 8 15 13 5 10 3 5
33 29 21 43 50 56 53 43 27 56 67 65 52 26 94 101 102 95 71 65 59 64 64 61 70 65 61 54 49 45 41 35 30 28 25 24 24 22 15 14 11 3 2 1 7 9 11 13 15
11 33 50 48 50 51 48 46 31 70 49 57 46 21 63 99 102 97 87 80 73 77 74 68 71 65 54 46 44 40 35 32 30 27 23 22 22 19 15 9 8 6 7 5 7 10 14 18 21
39 31 30 33 52 34 30 34 61 81 43 53 54 34 22 69 77 82 89 85 91 89 78 73 71 67 53 38 26 25 25 31 30 30 26 27 28 21 14 8 2 9 9 14 18 22 30 31 37
4 8 26 50 24 37 32 56 51 50 36 44 37 32 27 27 49 67 61 63 89 87 83 81 59 64 54 32 38 41 34 32 26 24 27 22 22 24 18 18 14 18 19 24 27 27 30 34 44
7 17 28 25 29 18 36 46 39 48 41 43 37 33 25 18 26 43 41 47 64 80 87 72 64 67 58 68 68 59 48 42 40 32 31 26 25 28 21 22 27 28 29 24 25 29 41 47 46
30 29 21 28 14 31 39 37 22 32 46 37 36 37 32 30 30 33 27 33 50 62 60 64 62 63 48 84 70 47 51 40 42 38 34 27 35 31 26 29 28 32 34 41 41 38 37 42 46
27 28 21 15 15 26 37 42 27 28 21 27 48 49 49 42 32 36 24 28 48 62 77 67 70 63 75 80 66 58 62 45 45 41 41 35 40 39 33 26 30 34 40 46 47 46 47 48 50
34 34 32 27 21 18 32 43 26 19 34 40 43 49 54 57 52 43 36 34 47 53 66 73 67 62 63 65 73 59 60 49 45 42 46 38 35 42 36 34 36 38 40 42 42 41 44 43 44
32 33 26 28 25 21 15 28 15 23 27 50 61 73 70 60 70 48 47 38 44 56 59 67 67 47 56 78 69 75 68 50 43 46 54 42 34 34 34 34 36 32 29 32 36 37 33 30 32
30 27 31 24 25 13 11 20 18 35 31 26 48 59 72 74 72 70 63 47 44 45 54 63 71 58 53 64 80 81 89 70 69 65 46 40 25 29 30 29 30 29 27 25 25 25 26 27 21
26 29 23 28 25 7 28 5 16 19 31 31 34 52 74 68 78 79 75 65 44 49 64 62 70 55 48 52 70 88 76 75 62 53 48 31 28 29 28 28 26 23 23 23 23 21 19 20 27
21 17 28 20 6 15 32 13 10 12 41 50 25 51 70 66 69 72 69 67 57 63 76 67 65 58 51 53 57 65 73 69 57 45 37 33 30 28 23 24 23 23 23 20 15 16 19 23 28
11 2 9 11 12 12 15 15 19 20 20 28 33 42 67 67 56 68 74 68 62 68 76 71 70 60 58 44 42 48 43 49 31 34 34 37 30 19 14 19 22 20 18 18 18 19 22 26 29
20 17 7 10 13 16 18 18 16 39 20 38 61 70 71 66 63 60 70 69 71 76 77 75 61 58 44 42 38 34 30 26 42 34 35 27 16 13 15 14 15 17 20 22 22 22 25 30 32
10 18 20 5 5 6 6 10 9 15 8 16 25 50 64 66 61 65 65 74 83 81 74 65 56 49 43 39 37 33 22 32 41 41 35 28 21 15 15 17 16 20 23 23 22 22 24 27 31
10 8 13 7 8 10 12 26 11 10 11 15 17 21 55 64 69 69 76 82 90 86 70 60 55 52 43 41 38 34 29 30 37 39 36 32 23 14 11 11 14 15 18 23 26 29 32 35 37
7 7 5 9 7 9 16 11 7 5 10 14 7 30 51 59 72 78 78 81 79 71 63 63 61 54 48 43 42 37 33 40 41 34 27 18 14 8 6 9 12 17 24 28 32 36 39 42 45
4 11 15 9 12 2 5 7 12 17 6 5 21 56 70 87 81 82 88 88 82 82 73 70 66 60 53 47 47 40 35 28 19 19 18 15 12 9 9 10 15 19 23 28 33 38 43 45 45
Wind_Direction_500mb
244 248 233 196 72 71 241 245 289 268 306 216 83 144 162 159 158 209 161 173 204 199 179 175 176 173 171 169 166 165 164 161 154 148 144 146 149 149 148 149 152 152 151 146 141 143 148 139 137
218 210 192 183 138 203 248 230 253 246 281 294 315 133 109 192 179 155 168 190 193 193 180 177 176 176 174 170 168 167 166 163 156 148 144 147 151 152 150 151 154 156 157 156 155 152 150 149 145
209 182 172 161 186 214 238 202 241 57 270 310 347 141 154 205 194 173 187 192 183 184 180 177 176 176 175 172 169 168 168 166 162 156 149 148 151 150 151 152 154 156 159 167 168 163 157 153 150
186 171 246 187 221 236 234 235 267 11 300 295 11 286 175 152 155 178 183 177 176 182 179 178 176 175 175 174 170 169 170 170 167 162 155 153 155 154 154 152 150 150 154 161 166 167 162 158 154
202 194 228 227 240 249 252 254 272 275 282 281 304 220 175 166 166 179 174 173 173 177 176 177 177 175 174 175 172 169 171 172 171 167 160 158 157 157 154 154 154 155 158 166 173 174 171 167 164
176 193 178 229 231 244 252 253 268 264 271 279 312 124 179 177 161 175 179 173 175 180 175 177 177 175 174 175 174 171 172 173 173 171 165 161 161 160 161 158 158 161 164 170 173 176 177 175 173
167 127 214 212 238 254 243 255 246 264 260 268 251 174 212 194 177 181 174 177 174 181 179 179 177 176 175 176 175 173 173 175 176 173 167 166 166 167 169 164 162 165 165 169 174 177 181 185 186
211 127 228 214 230 257 233 243 250 253 263 266 257 184 171 195 187 177 173 177 177 184 186 180 179 178 177 176 176 174 174 178 177 177 172 170 172 174 173 173 170 169 168 171 182 182 190 201 203
218 192 231 224 208 242 266 243 265 274 273 281 272 238 209 187 178 171 174 173 179 183 184 184 182 181 179 177 176 177 178 180 181 180 177 177 177 179 179 179 176 172 180 188 205 217 224 234 233
197 220 229 177 212 236 264 249 299 320 313 309 320 277 189 177 176 175 174 173 174 183 186 187 185 183 182 181 180 181 183 184 185 184 181 179 180 182 182 186 181 176 229 259 261 265 278 287 290
210 233 230 254 240 236 258 274 288 292 286 301 325 172 154 169 176 180 181 185 186 183 183 188 188 187 185 185 184 185 188 188 188 188 186 184 184 187 187 189 186 136 81 17 277 310 336 294 296
258 240 239 228 246 237 257 278 268 256 275 295 305 170 162 166 174 185 185 187 186 184 185 187 191 188 190 191 191 192 191 193 193 190 189 189 185 181 179 174 148 126 75 49 64 41 355 351 295
229 238 256 245 252 265 270 264 284 275 278 285 298 238 173 173 182 188 191 190 189 189 187 188 188 193 195 194 197 198 199 200 200 199 194 197 193 190 167 151 165 151 301 345 338 327 307 298 292
240 215 246 249 255 247 250 271 277 265 266 278 286 263 187 182 183 185 189 192 193 192 190 182 183 194 194 198 207 208 209 215 214 213 208 206 207 201 184 156 224 240 264 289 305 298 295 292 300
270 278 271 251 239 247 251 269 243 254 270 273 279 240 209 197 184 187 182 191 195 193 186 174 182 187 185 191 197 210 219 224 233 228 214 211 209 208 192 164 237 266 283 285 283 282 287 293 293
303 242 244 250 231 238 204 250 256 259 249 256 262 251 234 191 204 193 192 178 194 190 182 173 180 177 173 178 224 220 217 203 194 193 190 181 178 196 203 196 224 250 258 272 281 280 278 275 281
246 247 235 260 223 222 206 247 254 256 231 237 255 255 241 242 163 186 181 194 180 190 187 187 192 201 215 212 224 217 215 199 199 200 196 204 207 199 213 212 219 238 246 261 253 259 269 274 285
221 234 248 245 209 222 238 244 241 239 220 225 244 248 241 241 192 167 160 162 169 180 192 190 193 208 206 199 205 214 216 206 214 208 202 204 214 210 213 217 233 248 258 257 255 261 269 281 289
253 267 258 253 220 212 230 240 246 227 226 212 227 244 244 235 215 181 184 168 165 175 186 188 188 189 198 200 217 205 207 211 220 223 225 215 211 209 217 234 245 256 260 255 259 266 271 281 292
239 254 267 274 263 224 234 237 229 218 228 224 223 228 235 236 230 198 205 192 184 182 187 188 191 188 205 209 207 208 207 211 208 220 225 219 212 214 222 231 256 266 261 263 270 280 285 292 294
233 238 243 254 272 291 236 249 223 235 231 218 228 233 237 239 231 215 196 201 188 187 190 191 186 203 205 204 214 210 202 211 201 224 222 207 202 219 229 248 256 256 270 277 281 288 292 295 302
243 245 258 262 246 236 178 247 211 219 209 211 217 223 230 233 237 222 222 208 203 198 197 189 194 201 199 213 214 205 203 213 215 205 208 214 209 229 233 235 250 270 281 285 288 287 295 295 296
260 227 232 255 263 261 267 275 246 194 214 217 218 216 226 230 221 218 219 225 220 219 188 186 194 199 213 216 212 203 204 214 212 212 213 215 216 204 223 245 258 273 285 293 287 290 292 291 286
237 300 235 244 233 235 236 200 268 192 202 218 214 210 212 214 215 219 217 215 216 197 181 184 184 197 204 209 217 210 217 212 213 207 205 198 201 211 226 242 256 271 273 277 276 273 274 278 280
216 110 185 227 200 226 191 211 244 265 222 202 204 202 212 214 200 207 209 204 194 187 183 185 191 194 194 210 209 213 216 210 210 183 174 219 203 201 225 244 249 264 271 277 274 277 281 281 285
216 188 172 202 157 219 164 205 234 232 247 229 197 200 199 196 196 199 207 200 187 182 182 187 201 196 195 195 205 211 207 194 186 180 183 202 203 213 230 231 238 252 262 269 278 286 286 287 291
181 191 201 317 187 93 199 227 289 253 254 219 191 184 200 203 198 193 195 188 181 179 174 183 180 167 168 181 191 204 181 172 175 179 183 193 204 215 194 201 219 247 261 273 283 290 293 294 292
185 152 157 255 195 161 184 214 224 204 211 270 191 183 195 201 191 180 176 174 170 167 167 163 156 155 160 168 177 173 167 168 167 173 182 188 193 194 212 240 249 259 279 293 303 310 304 302 302
150 134 170 200 258 156 167 240 320 319 247 219 257 197 171 155 148 139 146 159 163 163 170 157 155 157 155 162 168 173 174 161 156 161 158 169 186 203 238 251 274 288 296 302 304 305 305 309 311
143 161 191 140 211 285 176 251 313 253 152 205 104 124 122 126 126 130 137 146 148 155 156 149 153 159 163 170 160 159 164 154 170 164 161 169 181 192 228 277 290 291 298 305 311 314 317 318 319
Wind_Speed_850mb
22 22 15 10 4 7 8 18 10 30 10 10 15 16 32 52 24 11 69 16 58 50 64 59 56 54 53 51 47 43 39 34 29 27 27 29 33 37 39 40 39 36 33 30 27 25 23 20 18
16 15 16 6 8 6 13 15 39 32 22 57 23 33 21 17 26 35 73 58 52 64 69 64 60 57 54 52 47 43 39 33 28 24 24 27 32 34 35 35 34 31 28 26 25 21 21 20 20
10 20 14 9 10 22 21 23 37 3 31 37 17 22 21 13 42 74 62 53 49 73 70 66 63 59 54 51 48 44 40 36 30 26 24 26 30 32 31 30 27 25 24 23 22 20 19 20 22
7 13 9 7 19 23 37 15 7 8 49 49 1 5 14 29 47 65 66 54 64 73 74 64 62 59 54 51 49 47 42 37 32 27 26 28 31 32 28 24 22 23 22 21 20 19 17 19 23
19 6 6 9 21 15 25 38 40 26 27 54 36 7 29 44 43 54 53 55 70 80 75 66 61 58 53 50 49 47 42 37 31 24 23 25 29 29 25 22 20 19 19 17 16 15 17 20 24
14 6 4 30 17 38 31 44 39 28 35 65 21 15 25 42 54 49 53 55 63 74 73 64 61 56 52 48 47 46 43 37 32 26 24 24 27 28 23 19 17 15 14 13 13 13 16 20 24
13 8 12 9 22 40 27 29 27 38 33 57 40 13 11 56 58 54 58 58 58 66 69 65 62 56 51 49 47 45 41 36 31 27 25 25 27 28 23 18 15 14 13 11 10 11 12 16 20
20 8 9 14 24 24 12 41 53 47 45 76 60 15 24 80 70 70 70 65 63 70 71 67 64 60 55 52 47 44 40 35 32 29 29 29 29 28 23 18 14 12 12 11 9 9 10 12 15
28 7 25 25 23 18 18 9 49 45 49 56 50 47 49 79 79 76 71 59 62 74 70 69 68 62 56 52 49 44 40 36 34 33 31 31 30 29 25 19 14 11 9 8 7 6 6 7 10
14 18 31 7 22 15 23 18 24 24 40 41 58 37 65 95 92 86 78 70 65 74 72 72 69 64 60 57 53 48 44 40 36 33 33 32 30 27 23 17 11 6 3 4 6 7 7 9 10
15 32 42 13 36 40 34 41 33 24 34 33 35 47 91 101 98 90 80 70 66 67 69 74 70 65 61 57 54 50 44 38 34 30 28 27 26 25 22 19 13 7 9 9 9 7 9 9 7
14 26 47 14 31 41 42 47 37 20 33 58 58 62 87 91 86 84 75 67 63 63 62 62 68 63 61 56 51 45 41 36 32 29 27 26 25 23 20 14 13 11 8 15 13 5 10 3 5
33 29 21 43 50 56 53 43 27 56 67 65 52 26 94 101 102 95 71 65 59 64 64 61 70 65 61 54 49 45 41 35 30 28 25 24 24 22 15 14 11 3 2 1 7 9 11 13 15
11 33 50 48 50 51 48 46 31 70 49 57 46 21 63 99 102 97 87 80 73 77 74 68 71 65 54 46 44 40 35 32 30 27 23 22 22 19 15 9 8 6 7 5 7 10 14 18 21
39 31 30 33 52 34 30 34 61 81 43 53 54 34 22 69 77 82 89 85 91 89 78 73 71 67 53 38 26 25 25 31 30 30 26 27 28 21 14 8 2 9 9 14 18 22 30 31 37
4 8 26 50 24 37 32 56 51 50 36 44 37 32 27 27 49 67 61 63 89 87 83 81 59 64 54 32 38 41 34 32 26 24 27 22 22 24 18 18 14 18 19 24 27 27 30 34 44
7 17 28 25 29 18 36 46 39 48 41 43 37 33 25 18 26 43 41 47 64 80 87 72 64 67 58 68 68 59 48 42 40 32 31 26 25 28 21 22 27 28 29 24 25 29 41 47 46
30 29 21 28 14 31 39 37 22 32 46 37 36 37 32 30 30 33 27 33 50 62 60 64 62 63 48 84 70 47 51 40 42 38 34 27 35 31 26 29 28 32 34 41 41 38 37 42 46
27 28 21 15 15 26 37 42 27 28 21 27 48 49 49 42 32 36 24 28 48 62 77 67 70 63 75 80 66 58 62 45 45 41 41 35 40 39 33 26 30 34 40 46 47 46 47 48 50
34 34 32 27 21 18 32 43 26 19 34 40 43 49 54 57 52 43 36 34 47 53 66 73 67 62 63 65 73 59 60 49 45 42 46 38 35 42 36 34 36 38 40 42 42 41 44 43 44
32 33 26 28 25 21 15 28 15 23 27 50 61 73 70 60 70 48 47 38 44 56 59 67 67 47 56 78 69 75 68 50 43 46 54 42 34 34 34 34 36 32 29 32 36 37 33 30 32
30 27 31 24 25 13 11 20 18 35 31 26 48 59 72 74 72 70 63 47 44 45 54 63 71 58 53 64 80 81 89 70 69 65 46 40 25 29 30 29 30 29 27 25 25 25 26 27 21
26 29 23 28 25 7 28 5 16 19 31 31 34 52 74 68 78 79 75 65 44 49 64 62 70 55 48 52 70 88 76 75 62 53 48 31 28 29 28 28 26 23 23 23 23 21 19 20 27
21 17 28 20 6 15 32 13 10 12 41 50 25 51 70 66 69 72 69 67 57 63 76 67 65 58 51 53 57 65 73 69 57 45 37 33 30 28 23 24 23 23 23 20 15 16 19 23 28
11 2 9 11 12 12 15 15 19 20 20 28 33 42 67 67 56 68 74 68 62 68 76 71 70 60 58 44 42 48 43 49 31 34 34 37 30 19 14 19 22 20 18 18 18 19 22 26 29
20 17 7 10 13 16 18 18 16 39 20 38 61 70 71 66 63 60 70 69 71 76 77 75 61 58 44 42 38 34 30 26 42 34 35 27 16 13 15 14 15 17 20 22 22 22 25 30 32
10 18 20 5 5 6 6 10 9 15 8 16 25 50 64 66 61 65 65 74 83 81 74 65 56 49 43 39 37 33 22 32 41 41 35 28 21 15 15 17 16 20 23 23 22 22 24 27 31
10 8 13 7 8 10 12 26 11 10 11 15 17 21 55 64 69 69 76 82 90 86 70 60 55 52 43 41 38 34 29 30 37 39 36 32 23 14 11 11 14 15 18 23 26 29 32 35 37
7 7 5 9 7 9 16 11 7 5 10 14 7 30 51 59 72 78 78 81 79 71 63 63 61 54 48 43 42 37 33 40 41 34 27 18 14 8 6 9 12 17 24 28 32 36 39 42 45
4 11 15 9 12 2 5 7 12 17 6 5 21 56 70 87 81 82 88 88 82 82 73 70 66 60 53 47 47 40 35 28 19 19 18 15 12 9 9 10 15 19 23 28 33 38 43 45 45
Wind_Direction_850mb
244 248 233 196 72 71 241 245 289 268 306 216 83 144 162 159 158 209 161 173 204 199 179 175 176 173 171 169 166 165 164 161 154 148 144 146 149 149 148 149 152 152 151 146 141 143 148 139 137
218 210 192 183 138 203 248 230 253 246 281 294 315 133 109 192 179 155 168 190 193 193 180 177 176 176 174 170 168 167 166 163 156 148 144 147 151 152 150 151 154 156 157 156 155 152 150 149 145
209 182 172 161 186 214 238 202 241 57 270 310 347 141 154 205 194 173 187 192 183 184 180 177 176 176 175 172 169 168 168 166 162 156 149 148 151 150 151 152 154 156 159 167 168 163 157 153 150
186 171 246 187 221 236 234 235 267 11 300 295 11 286 175 152 155 178 183 177 176 182 179 178 176 175 175 174 170 169 170 170 167 162 155 153 155 154 154 152 150 150 154 161 166 167 162 158 154
202 194 228 227 240 249 252 254 272 275 282 281 304 220 175 166 166 179 174 173 173 177 176 177 177 175 174 175 172 169 171 172 171 167 160 158 157 157 154 154 154 155 158 166 173 174 171 167 164
176 193 178 229 231 244 252 253 268 264 271 279 312 124 179 177 161 175 179 173 175 180 175 177 177 175 174 175 174 171 172 173 173 171 165 161 161 160 161 158 158 161 164 170 173 176 177 175 173
167 127 214 212 238 254 243 255 246 264 260 268 251 174 212 194 177 181 174 177 174 181 179 179 177 176 175 176 175 173 173 175 176 173 167 166 166 167 169 164 162 165 165 169 174 177 181 185 186
211 127 228 214 230 257 233 243 250 253 263 266 257 184 171 195 187 177 173 177 177 184 186 180 179 178 177 176 176 174 174 178 177 177 172 170 172 174 173 173 170 169 168 171 182 182 190 201 203
218 192 231 224 208 242 266 243 265 274 273 281 272 238 209 187 178 171 174 173 179 183 184 184 182 181 179 177 176 177 178 180 181 180 177 177 177 179 179 179 176 172 180 188 205 217 224 234 233
197 220 229 177 212 236 264 249 299 320 313 309 320 277 189 177 176 175 174 173 174 183 186 187 185 183 182 181 180 181 183 184 185 184 181 179 180 182 182 186 181 176 229 259 261 265 278 287 290
210 233 230 254 240 236 258 274 288 292 286 301 325 172 154 169 176 180 181 185 186 183 183 188 188 187 185 185 184 185 188 188 188 188 186 184 184 187 187 189 186 136 81 17 277 310 336 294 296
258 240 239 228 246 237 257 278 268 256 275 295 305 170 162 166 174 185 185 187 186 184 185 187 191 188 190 191 191 192 191 193 193 190 189 189 185 181 179 174 148 126 75 49 64 41 355 351 295
229 238 256 245 252 265 270 264 284 275 278 285 298 238 173 173 182 188 191 190 189 189 187 188 188 193 195 194 197 198 199 200 200 199 194 197 193 190 167 151 165 151 301 345 338 327 307 298 292
240 215 246 249 255 247 250 271 277 265 266 278 286 263 187 182 183 185 189 192 193 192 190 182 183 194 194 198 207 208 209 215 214 213 208 206 207 201 184 156 224 240 264 289 305 298 295 292 300
270 278 271 251 239 247 251 269 243 254 270 273 279 240 209 197 184 187 182 191 195 193 186 174 182 187 185 191 197 210 219 224 233 228 214 211 209 208 192 164 237 266 283 285 283 282 287 293 293
303 242 244 250 231 238 204 250 256 259 249 256 262 251 234 191 204 193 192 178 194 190 182 173 180 177 173 178 224 220 217 203 194 193 190 181 178 196 203 196 224 250 258 272 281 280 278 275 281
246 247 235 260 223 222 206 247 254 256 231 237 255 255 241 242 163 186 181 194 180 190 187 187 192 201 215 212 224 217 215 199 199 200 196 204 207 199 213 212 219 238 246 261 253 259 269 274 285
221 234 248 245 209 222 238 244 241 239 220 225 244 248 241 241 192 167 160 162 169 180 192 190 193 208 206 199 205 214 216 206 214 208 202 204 214 210 213 217 233 248 258 257 255 261 269 281 289
253 267 258 253 220 212 230 240 246 227 226 212 227 244 244 235 215 181 184 168 165 175 186 188 188 189 198 200 217 205 207 211 220 223 225 215 211 209 217 234 245 256 260 255 259 266 271 281 292
239 254 267 274 263 224 234 237 229 218 228 224 223 228 235 236 230 198 205 192 184 182 187 188 191 188 205 209 207 208 207 211 208 220 225 219 212 214 222 231 256 266 261 263 270 280 285 292 294
233 238 243 254 272 291 236 249 223 235 231 218 228 233 237 239 231 215 196 201 188 187 190 191 186 203 205 204 214 210 202 211 201 224 222 207 202 219 229 248 256 256 270 277 281 288 292 295 302
243 245 258 262 246 236 178 247 211 219 209 211 217 223 230 233 237 222 222 208 203 198 197 189 194 201 199 213 214 205 203 213 215 205 208 214 209 229 233 235 250 270 281 285 288 287 295 295 296
260 227 232 255 263 261 267 275 246 194 214 217 218 216 226 230 221 218 219 225 220 219 188 186 194 199 213 216 212 203 204 214 212 212 213 215 216 204 223 245 258 273 285 293 287 290 292 291 286
237 300 235 244 233 235 236 200 268 192 202 218 214 210 212 214 215 219 217 215 216 197 181 184 184 197 204 209 217 210 217 212 213 207 205 198 201 211 226 242 256 271 273 277 276 273 274 278 280
216 110 185 227 200 226 191 211 244 265 222 202 204 202 212 214 200 207 209 204 194 187 183 185 191 194 194 210 209 213 216 210 210 183 174 219 203 201 225 244 249 264 271 277 274 277 281 281 285
216 188 172 202 157 219 164 205 234 232 247 229 197 200 199 196 196 199 207 200 187 182 182 187 201 196 195 195 205 211 207 194 186 180 183 202 203 213 230 231 238 252 262 269 278 286 286 287 291
181 191 201 317 187 93 199 227 289 253 254 219 191 184 200 203 198 193 195 188 181 179 174 183 180 167 168 181 191 204 181 172 175 179 183 193 204 215 194 201 219 247 261 273 283 290 293 294 292
185 152 157 255 195 161 184 214 224 204 211 270 191 183 195 201 191 180 176 174 170 167 167 163 156 155 160 168 177 173 167 168 167 173 182 188 193 194 212 240 249 259 279 293 303 310 304 302 302
150 134 170 200 258 156 167 240 320 319 247 219 257 197 171 155 148 139 146 159 163 163 170 157 155 157 155 162 168 173 174 161 156 161 158 169 186 203 238 251 274 288 296 302 304 305 305 309 311
143 161 191 140 211 285 176 251 313 253 152 205 104 124 122 126 126 130 137 146 148 155 156 149 153 159 163 170 160 159 164 154 170 164 161 169 181 192 228 277 290 291 298 305 311 314 317 318 319